User: anonymous
Location: Unspecified
(0.0000°N, 0.0000°E)
Time: 18:50:52
(UTC+00:00)
Language:

PLEIADES HR1 - Orbit

View from above orbital plane
View from above orbital plane
View from above satellite
View from above satellite

Ground track
Ground track

The orbit data is extracted from the following two-line orbital elements,

1 38012U 11076F   14210.48618480  .00000419  00000-0  10005-3 0  9258
2 38012 098.1946 284.8512 0001566 068.4275 291.7106 14.58552381139262
Epoch (UTC): 29 July 2014 11:40:06
Eccentricity: 0.0001566
inclination: 98.1946°
perigee height: 697 km
apogee height: 699 km
right ascension of ascending node: 284.8512°
argument of perigee: 68.4275°
revolutions per day: 14.58552381
mean anomaly at epoch: 291.7106°
orbit number at epoch: 13926

The dashed part of the orbit path shows where the satellite is in the earth's shadow,  

DLR